TimePDT,TemperatureF,Dew PointF,Humidity,Sea Level PressureIn,VisibilityMPH,Wind Direction,Wind SpeedMPH,Gust SpeedMPH,PrecipitationIn,Events,Conditions,WindDirDegrees,DateUTC
12:58 AM,74.1,29.8,20,29.51,10.0,SW,21.9,32.2,N/A,,Clear,220,2013-05-23 07:58:00
1:58 AM,72.0,32.7,24,29.53,10.0,SSW,21.9,35.7,N/A,,Clear,210,2013-05-23 08:58:00
2:58 AM,70.2,30.2,23,29.56,10.0,South,10.4,-,N/A,,Clear,190,2013-05-23 09:58:00
3:58 AM,68.7,27.7,22,29.57,10.0,South,12.7,27.6,N/A,,Clear,180,2013-05-23 10:58:00
4:58 AM,67.3,24.1,20,29.59,10.0,South,13.8,-,N/A,,Clear,170,2013-05-23 11:58:00
5:58 AM,66.4,27.5,23,29.61,10.0,South,17.3,-,N/A,,Clear,190,2013-05-23 12:58:00
6:58 AM,67.3,23.9,19,29.64,10.0,South,10.4,-,N/A,,Clear,190,2013-05-23 13:58:00
7:58 AM,69.4,21.7,16,29.65,10.0,South,18.4,-,N/A,,Clear,190,2013-05-23 14:58:00
8:58 AM,72.3,19.2,13,29.67,10.0,South,15.0,-,N/A,,Clear,190,2013-05-23 15:58:00
9:58 AM,75.2,15.4,10,29.68,10.0,SSW,16.1,-,N/A,,Clear,200,2013-05-23 16:58:00
10:58 AM,78.3,12.7,8,29.67,10.0,SSW,13.8,-,N/A,,Clear,210,2013-05-23 17:58:00
11:27 AM,80.6,12.2,8,29.72,10.0,South,15.0,20.7,N/A,,Clear,170,2013-05-23 18:27:00
11:58 AM,82.9,2.7,5,29.65,10.0,SSW,18.4,28.8,N/A,,Clear,200,2013-05-23 18:58:00
12:58 PM,85.1,2.3,4,29.63,10.0,SSW,17.3,29.9,N/A,,Clear,210,2013-05-23 19:58:00
1:58 PM,86.5,0.9,4,29.62,10.0,SSW,21.9,29.9,N/A,,Clear,200,2013-05-23 20:58:00
2:58 PM,87.8,-2.0,4,29.61,10.0,SW,27.6,32.2,N/A,,Clear,220,2013-05-23 21:58:00
3:25 PM,87.8,-7.6,4,29.67,10.0,SW,24.2,32.2,N/A,,Clear,230,2013-05-23 22:25:00
3:58 PM,87.4,-9.0,4,29.60,10.0,SSW,28.8,35.7,N/A,,Clear,210,2013-05-23 22:58:00
4:58 PM,86.7,-2.7,4,29.60,10.0,SW,25.3,31.1,N/A,,Clear,220,2013-05-23 23:58:00
5:58 PM,85.8,2.8,4,29.60,10.0,SW,21.9,27.6,N/A,,Clear,220,2013-05-24 00:58:00
6:58 PM,84.2,6.6,5,29.61,10.0,SW,20.7,-,N/A,,Clear,220,2013-05-24 01:58:00
7:58 PM,82.0,12.6,7,29.64,10.0,SSW,16.1,25.3,N/A,,Clear,200,2013-05-24 02:58:00
8:58 PM,79.9,12.7,8,29.67,10.0,SSW,10.4,-,N/A,,Clear,200,2013-05-24 03:58:00
9:58 PM,76.8,14.2,9,29.70,10.0,SW,6.9,-,N/A,,Clear,220,2013-05-24 04:58:00
10:58 PM,75.9,17.2,11,29.71,10.0,South,8.1,-,N/A,,Clear,180,2013-05-24 05:58:00
11:58 PM,74.7,17.2,11,29.72,10.0,South,16.1,-,N/A,,Clear,180,2013-05-24 06:58:00